📊 Raw Sensor Data

Showing records 50101 to 50125 of 85,129 total

ID Distance (ft) Battery V Battery A Int Temp (°F) Int Humid (%) Ext Temp (°F) Solar V RSSI SNR Time Stamp
35041 -- 4.05 0 48 38 48 5.10 -78 8 03/15/2025 09:00 AM
35040 -- 4.05 0 47 38 47 5.10 -80 9 03/15/2025 08:45 AM
35039 -- 4.16 34 45 38 46 4.50 -77 8 03/15/2025 08:30 AM
35038 -- 4.06 34 44 38 45 4.50 -78 7 03/15/2025 08:15 AM
35037 -- 3.96 -14 42 39 43 4.50 -79 8 03/15/2025 07:30 AM
35036 -- 4.01 -5 42 39 43 2.10 -79 8 03/15/2025 07:15 AM
35035 -- 3.96 -5 41 39 42 0.30 -78 8 03/15/2025 07:01 AM
35034 -- 3.97 -5 41 39 42 0.00 -78 8 03/15/2025 06:45 AM
35033 -- 4.02 -5 41 39 42 0.10 -79 7 03/15/2025 06:31 AM
35032 -- 3.96 -5 41 39 42 0.00 -78 8 03/15/2025 06:16 AM
35031 -- 3.97 -5 41 39 42 0.00 -78 8 03/15/2025 06:00 AM
35030 -- 4.02 -5 41 39 43 0.00 -79 7 03/15/2025 05:45 AM
35029 -- 3.97 -5 41 39 42 0.00 -79 8 03/15/2025 05:30 AM
35028 -- 3.97 -5 41 39 42 0.00 -80 8 03/15/2025 05:15 AM
35027 -- 4.02 -5 41 39 42 0.10 -79 8 03/15/2025 05:00 AM
35026 15.0 3.97 -5 41 39 42 0.00 -79 9 03/15/2025 04:45 AM
35025 15.0 3.97 -5 40 39 42 0.00 -80 8 03/15/2025 04:30 AM
35024 15.0 4.02 -5 39 39 42 0.00 -81 8 03/15/2025 04:15 AM
35023 15.0 3.97 -5 38 39 40 0.00 -81 8 03/15/2025 04:00 AM
35022 15.0 3.97 -5 38 39 40 0.00 -80 7 03/15/2025 03:45 AM
35021 15.0 3.98 -34 38 40 40 0.00 -80 8 03/15/2025 03:30 AM
35020 15.1 4.03 -5 39 40 39 0.00 -79 8 03/15/2025 03:15 AM
35019 -- 3.97 -5 39 40 40 0.10 -79 8 03/15/2025 03:00 AM
35018 15.0 4.03 -5 40 40 41 0.00 -79 8 03/15/2025 02:45 AM
35017 15.0 3.98 -21 41 40 42 0.00 -79 8 03/15/2025 02:30 AM